This is the latest recevied weather packets stored in our database for station/object N7CEE-2. If no packets are shown the sender has not sent any weather packets the latest 10 day(s).
| Time | Temp. | Humidity | Pressure | Rain* | Wind** | Luminosity | Snow |
|---|---|---|---|---|---|---|---|
| 1777577744 | 30.56° C | 16% | 1010.3 hPa | 0 mm | - | 879 W/m² | - |
| 1777577441 | 30° C | 17% | 1010.4 hPa | 0 mm | - | 1027 W/m² | - |
| 1777577138 | 29.44° C | 16% | 1010.7 hPa | 0 mm | - | 1034 W/m² | - |
| 1777576834 | 30° C | 16% | 1010.9 hPa | 0 mm | - | 1053 W/m² | - |
| 1777576533 | 29.44° C | 16% | 1010.6 hPa | 0 mm | - | 978 W/m² | - |
| 1777576230 | 29.44° C | 16% | 1011.1 hPa | 0 mm | - | 814 W/m² | - |
| 1777575926 | 29.44° C | 17% | 1011 hPa | 0 mm | - | 911 W/m² | - |
| 1777575622 | 30.56° C | 17% | 1011.1 hPa | 0 mm | - | 930 W/m² | - |
| 1777575319 | 30.56° C | 18% | 1011.1 hPa | 0 mm | - | 970 W/m² | - |
| 1777575015 | 30° C | 18% | 1011.1 hPa | 0 mm | - | 967 W/m² | - |
| 1777574711 | 28.89° C | 18% | 1011.2 hPa | 0 mm | - | 961 W/m² | - |
| 1777574408 | 29.44° C | 19% | 1011.5 hPa | 0 mm | - | 961 W/m² | - |
| 1777574103 | 29.44° C | 18% | 1011.4 hPa | 0 mm | - | 954 W/m² | - |
| 1777573798 | 30° C | 19% | 1011.5 hPa | 0 mm | - | 951 W/m² | - |
| 1777573494 | 29.44° C | 19% | 1011.5 hPa | 0 mm | - | 940 W/m² | - |
| 1777573190 | 29.44° C | 19% | 1011.9 hPa | 0 mm | - | 935 W/m² | - |
| 1777572887 | 28.33° C | 20% | 1011.7 hPa | 0 mm | - | 929 W/m² | - |
| 1777572583 | 28.33° C | 19% | 1012.1 hPa | 0 mm | - | 923 W/m² | - |
| 1777572278 | 28.33° C | 19% | 1012.1 hPa | 0 mm | - | 916 W/m² | - |
| 1777571974 | 28.89° C | 19% | 1012.2 hPa | 0 mm | - | 907 W/m² | - |
| 1777571668 | 28.33° C | 19% | 1012.3 hPa | 0 mm | - | 895 W/m² | - |
| 1777571367 | 28.33° C | 18% | 1012.2 hPa | 0 mm | - | 885 W/m² | - |
| 1777571062 | 27.78° C | 18% | 1012.2 hPa | 0 mm | - | 873 W/m² | - |
| 1777570759 | 27.78° C | 19% | 1012.6 hPa | 0 mm | - | 861 W/m² | - |
| 1777570455 | 28.33° C | 18% | 1012.4 hPa | 0 mm | - | 851 W/m² | - |
* Rain latest hour (hover to see other rain measurements)
** Current wind speed in m/s (hover to see current wind gust speed)